sat.trackr.live / text

‹ back to catalog

STARLINK-3955

NORAD 52561 · 2022-051AE

PAYLOAD ACTIVE UNKNOWN

§ Identity

Operator
Country
US
Launch date
2022-05-13
Launch site
AFWTR
Launch vehicle
Mass (kg)
RCS (m²)

Purposes: comms

External: N2YO · Heavens-Above · Gunter

§ Orbital elements

Epoch: 2026-09-19T17:04:00.818976Z

Period
93.85 min
Inclination
53.1615°
Eccentricity
0.0001076
Mean motion
15.34386103 rev/d
Perigee alt
462.0 km
Apogee alt
463.5 km
Semi-major
6,840.9 km
B*
9.5274e-5
RAAN
329.1133°
Arg perigee
53.4656°
Mean anomaly
306.6446°
Rev number
24,085

§ Raw data

STARLINK-39551 52561U 22051AE  26262.71112059  .00002843  00000+0  95274-4 0  99902 52561  53.1615 329.1133 0001076  53.4656 306.6446 15.34386103240859

JSON: /api/v1/satellites/52561 · /tle

For live sub-satellite position, see the globe view (requires WebGL).

§ Visibility from observer

Set your observer location to see the next 7 days of passes ≥ 10°. The values pass through the URL so the page stays shareable.

No JS? Fill the form by hand. The geolocation button needs JavaScript.